Blythe, CA

2:16 PM PDT on June 28, 2017 (GMT -0700)
Blythe

Weather History for KBLH - October, 2011

Change the Weather History Date:

Sunday, October 2, 2011

  Actual Average Record
Temperature  
Mean Temperature 88 °F -  
Max Temperature 100 °F 95 °F 108 °F (1980)
Min Temperature 75 °F 66 °F 53 °F (1971)
Cooling Degree Days 22    
Growing Degree Days 38 (Base 50)    
Moisture  
Dew Point 51 °F    
Average Humidity 29    
Maximum Humidity 41    
Minimum Humidity 17    
Precipitation  
Precipitation 0.00 in - - ()
Sea Level Pressure  
Sea Level Pressure 29.84 in    
Wind  
Wind Speed 5 mph (NW)    
Max Wind Speed 9 mph    
Max Gust Speed -    
Visibility 10 miles    
Events      
Averages and records for this station are not official NWS values.
T = Trace of Precipitation, MM = Missing Value Source: NWS Daily Summary

Daily Weather History Graph

Daily Weather History Graph

Search for Another Location

Airport or City:

Trip Planner

Search our weather history database for the weather conditions in past years. The results will help you decide how hot, cold, wet, or windy it might be!

Date:

Astronomy

Oct. 02, 2011 Rise Set
Actual Time 6:33 AM PDT 6:22 PM PDT
Civil Twilight 6:08 AM PDT 6:46 PM PDT
Nautical Twilight 5:40 AM PDT 7:15 PM PDT
Astronomical Twilight 5:11 AM PDT 7:44 PM PDT
Moon 12:27 PM PDT (10/2) 10:41 PM PDT (10/2)
Length of Visible Light 12h 38m
Length of Day
11h 48m
Waxing Crescent, 36% of the Moon is Illuminated
Oct 2
Waxing Crescent
Oct 3
First Quarter
Oct 11
Full
Oct 19
Last Quarter
Oct 26
New

Hourly Weather History & Observations

Time (PDT) Temp. Heat Index Dew Point Humidity Pressure Visibility Wind Dir Wind Speed Gust Speed Precip Events Conditions
12:52 AM 80.1 °F - 50.0 °F 35% 29.83 in 10.0 mi NNW 3.5 mph - N/A   Clear
1:52 AM 78.1 °F - 48.9 °F 36% 29.84 in 10.0 mi North 3.5 mph - N/A   Clear
2:52 AM 75.9 °F - 48.0 °F 37% 29.84 in 10.0 mi North 8.1 mph - N/A   Clear
3:52 AM 77.0 °F - 48.0 °F 36% 29.84 in 10.0 mi North 4.6 mph - N/A   Clear
4:52 AM 78.1 °F - 46.0 °F 32% 29.85 in 10.0 mi NNW 4.6 mph - N/A   Clear
5:52 AM 75.0 °F - 50.0 °F 41% 29.87 in 10.0 mi North 6.9 mph - N/A   Clear
6:52 AM 77.0 °F - 48.0 °F 36% 29.88 in 10.0 mi North 5.8 mph - N/A   Clear
8:52 AM 82.0 °F 81.3 °F 54.0 °F 38% 29.92 in 10.0 mi Calm Calm - N/A   Clear
9:52 AM 89.1 °F 87.1 °F 55.0 °F 31% 29.93 in 10.0 mi Calm Calm - N/A   Clear
10:52 AM 93.0 °F 91.1 °F 55.0 °F 28% 29.92 in 10.0 mi Calm Calm - N/A   Clear
11:52 AM 95.0 °F 93.0 °F 55.0 °F 26% 29.90 in 10.0 mi Variable 3.5 mph - N/A   Clear
12:52 PM 97.0 °F 94.6 °F 53.1 °F 23% 29.87 in 10.0 mi SE 5.8 mph - N/A   Clear
2:52 PM 100.0 °F - 48.0 °F 17% 29.81 in 10.0 mi SW 6.9 mph - N/A   Scattered Clouds
3:52 PM 100.9 °F - 48.9 °F 17% 29.79 in 10.0 mi Variable 4.6 mph - N/A   Scattered Clouds
4:52 PM 100.0 °F - 50.0 °F 18% 29.78 in 10.0 mi South 8.1 mph - N/A   Scattered Clouds
5:52 PM 98.1 °F - 52.0 °F 21% 29.78 in 10.0 mi SE 6.9 mph - N/A   Scattered Clouds
6:52 PM 95.0 °F 92.7 °F 54.0 °F 25% 29.78 in 10.0 mi South 3.5 mph - N/A   Partly Cloudy
7:52 PM 93.9 °F - 51.1 °F 23% 29.79 in 10.0 mi WNW 9.2 mph - N/A   Clear
8:52 PM 91.9 °F - 50.0 °F 24% 29.80 in 10.0 mi West 5.8 mph - N/A   Clear
10:52 PM 89.1 °F - 52.0 °F 28% 29.80 in 10.0 mi WSW 6.9 mph - N/A   Clear